Vertical_Velocity
-1 -1 -2 -1 -5 -1 -1 -2 -2 -1 -3 -3 -5 -3 -2 -4 -2 0 -3 -4 -5 8 1 1 0 -0 -2 -4 -2 -3 0 2 6 3 0 -4 -5 -5 -3 1 -0 3 7 7 12 2 2 -2 6 4 5 1 4 2
-0 -3 -2 -1 -3 -0 2 -0 -1 -2 -3 -3 0 1 -0 -1 -4 -0 1 4 2 -8 -0 -1 1 -0 -2 -0 -0 3 -4 -5 -12 -8 -2 -2 -0 -3 -3 -1 -1 2 3 4 -0 4 4 1 -1 -3 3 7 0 2
0 0 -3 -1 -2 -0 1 -1 -1 -1 -2 -2 -2 -1 -3 2 0 -5 -3 1 3 -5 -5 -1 -2 0 -1 -1 -1 -3 2 -0 -1 -3 -4 -0 -1 -2 -4 0 6 2 -1 -2 0 0 1 5 -2 -0 -1 2 3 7
-1 -0 -2 -3 -1 1 4 2 2 2 -2 1 -2 -4 -1 -1 2 2 -5 -0 -1 1 -6 3 -2 -0 -1 -0 -0 -1 -1 -3 -2 -1 -1 -2 -0 4 0 -2 1 0 -0 -7 -5 -2 -1 1 3 -3 -0 4 5 3
0 -0 -2 -3 -1 0 3 6 3 1 -1 -1 -4 -6 -8 -4 -4 1 -2 2 -2 1 4 -2 -3 -3 -2 -2 -2 -1 -3 -3 -3 -1 -0 -3 -1 1 0 1 2 1 5 4 -0 -3 -2 -0 -1 0 -2 -3 3 4
-2 -2 -0 -3 -3 -0 3 1 -1 2 2 -1 2 1 0 -0 1 -1 5 -1 -3 1 3 4 3 -9 -8 -9 -9 -5 -2 -1 1 -2 -4 1 -2 -3 -0 1 -0 5 2 1 4 -4 -7 -1 -0 -4 -2 -4 -6 -3
0 -0 -1 -2 -1 3 1 1 -4 -4 1 0 -2 2 -0 2 1 -6 -1 -0 0 -2 -1 0 7 3 2 1 -1 -3 -3 -3 -1 -3 -4 -5 -2 -3 -0 -1 -0 -1 -1 -2 0 0 -4 -6 -2 0 -2 -5 -1 -5
-1 -1 -1 -1 -2 3 1 2 1 2 0 -1 -6 0 -2 -3 -2 -3 -2 -3 -3 -1 0 -5 0 7 2 4 3 0 -2 -1 1 -0 -1 -3 -1 -2 -0 -1 -2 -0 -1 2 1 1 -1 -1 -5 -6 1 1 0 -3
-3 -1 -1 2 -1 -0 1 2 2 6 2 1 -0 -3 -1 2 5 4 2 -1 -1 -1 -2 -0 -2 1 2 -0 1 -1 4 -0 1 -0 -1 0 0 -1 -2 1 2 -0 -2 -1 -1 -0 1 3 4 1 -9 -5 1 0
-1 -1 -1 -1 1 2 5 -2 -0 -3 -1 -5 1 -2 2 -2 -1 0 -2 -2 2 5 1 -1 2 -1 -0 2 0 -0 -1 -2 -4 -1 -3 -1 -1 -1 -0 -2 -1 2 1 0 1 1 -1 -3 -1 2 3 -1 -1 -3
-1 2 1 -2 0 2 2 1 -3 -0 2 2 -2 4 2 -7 -4 -1 -1 1 -6 -4 -1 -5 0 -2 2 -1 1 2 -5 -4 -1 -0 -2 0 1 -1 1 1 -1 0 2 3 3 2 2 2 -0 -3 -3 -3 -5 -4
2 3 1 -0 5 5 1 0 -1 -0 -5 0 -6 -1 5 1 -2 -3 -1 -3 -6 -3 -6 -8 -3 1 1 -4 2 -1 1 -1 -2 -1 -1 1 2 1 1 2 3 2 1 0 -0 -1 0 -2 -2 -3 -3 -5 -2 -1
-3 3 -2 3 -0 -4 -1 -3 -0 -4 -3 0 1 1 -0 -2 -1 -3 -3 5 -1 0 0 -1 -0 2 -5 1 3 -1 -1 -1 0 2 0 4 -1 6 5 2 3 3 2 2 0 0 -1 0 0 -2 -3 -1 -2 -4
3 1 -5 -6 2 0 -2 1 3 2 -2 1 -9 -1 9 4 -1 -2 1 1 1 2 -0 -2 1 -4 -2 -3 3 2 0 0 -1 1 1 5 1 8 7 1 0 1 1 1 -0 -1 0 -0 -1 0 -0 -1 0 -1
-2 6 1 -5 -5 3 1 3 -0 1 1 2 2 -1 1 0 -0 -1 2 1 0 1 0 -1 1 4 3 2 4 1 1 -2 -0 0 4 1 -1 0 -0 6 4 -0 -0 0 -0 -0 -0 -1 -0 -0 1 0 0 0
-2 -3 0 -1 -5 -3 -5 0 -0 -1 5 5 11 5 1 1 3 0 3 2 -0 1 -1 -2 -1 -3 -1 1 3 4 3 3 2 3 2 1 1 1 3 -1 3 3 0 1 0 -0 -1 -1 -1 -1 -1 0 2 1
-2 1 5 -2 -4 -1 1 4 -2 6 11 3 2 0 1 2 2 1 2 2 -1 0 1 -0 -2 -1 -2 -1 -2 0 1 2 3 1 3 2 2 2 2 2 3 1 0 -1 1 1 -0 -1 -0 -1 -1 -2 -2 -0
-3 -2 -6 -3 -5 1 4 11 9 8 -0 1 4 -1 0 2 1 2 3 1 0 1 3 2 2 3 3 1 0 2 2 0 3 4 1 0 0 1 2 2 1 1 2 3 2 0 -1 -1 -2 -2 -1 -3 -2 -2
-1 -3 -1 -0 2 4 1 -5 -3 0 2 2 1 1 1 2 2 2 3 1 -1 -0 2 3 -0 0 2 3 1 0 3 5 2 -1 0 1 2 1 2 1 2 2 1 0 -1 -2 -1 -3 -2 -1 -1 -2 -2 -1
-2 -2 1 3 -1 -1 2 1 0 -1 -0 4 -0 1 2 -0 1 3 3 1 0 1 1 1 2 2 2 2 2 1 0 3 5 1 -1 -0 3 2 3 3 2 2 2 2 2 2 -1 1 1 2 2 1 1 0
-1 -2 -3 0 2 1 -2 -5 -3 -1 0 1 -1 -0 2 1 3 2 3 1 1 2 -0 1 2 3 3 1 -1 -1 0 1 3 4 5 4 -3 -1 -2 -3 0 2 2 2 1 0 2 -0 -0 0 0 -0 0 1
5 0 4 5 -1 -4 6 1 4 2 1 2 2 5 3 1 4 4 2 0 1 2 2 1 2 2 2 2 1 1 1 1 2 2 0 -1 2 -1 -3 1 1 -1 -0 1 0 0 0 1 1 -2 1 0 1 1
2 2 3 1 -3 1 -1 1 2 3 -2 -0 1 1 1 2 4 1 0 2 1 1 1 2 4 5 2 2 1 2 3 2 -1 1 4 -1 -2 -1 1 0 2 2 -2 -1 2 1 0 -0 1 1 1 0 1 1
-2 1 -5 -6 -3 -3 1 3 0 -0 4 1 2 -1 -1 1 3 3 2 1 2 2 3 4 3 1 -1 1 -1 0 3 2 1 -6 1 2 1 -3 -0 1 1 1 2 -1 1 1 1 -0 -0 -0 1 1 1 1
0 2 -6 -2 0 -3 -0 -2 0 1 -0 -1 -1 1 2 1 1 1 1 2 1 2 1 0 -0 1 1 0 -1 -0 -3 0 3 1 -4 -0 1 -1 -2 -1 -0 0 1 2 1 0 0 1 1 0 -0 0 1 1
-0 -6 -8 -4 -2 -2 -4 -5 -3 -0 -3 -1 2 2 0 1 4 1 -0 -1 1 2 2 4 3 5 1 -3 1 2 2 -0 -0 0 -2 -1 -0 1 1 -0 -4 0 5 3 0 1 0 1 1 0 -0 0 -0 1
-3 -5 -2 -1 -2 -3 -3 0 -1 -1 0 3 0 -2 -2 -3 -3 -1 -0 -0 1 3 1 1 1 1 2 4 1 -1 1 0 1 1 0 0 -1 0 1 1 -1 -1 -1 -2 0 0 0 0 0 1 1 1 0 -1
-3 -2 -2 -2 -2 -2 -2 -1 1 1 -1 -2 -4 -2 -1 -1 -0 -0 -1 0 1 2 -1 -4 -1 1 2 1 3 1 -1 -2 -3 -3 -0 3 7 2 -1 -1 -1 -0 -0 -1 -0 1 1 0 -0 2 5 0 -1 -1
-2 -2 -2 -2 -2 -2 -1 -0 -0 -3 -3 -3 -1 -0 -2 -4 -2 -3 -2 1 2 2 1 -0 -2 -4 -4 -5 2 6 2 3 2 -2 -2 -2 -5 -0 3 -0 -1 0 -1 -1 -0 0 -0 -0 1 2 0 -1 2 3
-3 -2 -0 -3 -3 -2 -2 -1 -3 -4 -4 -1 -1 -1 -2 -3 -3 -1 -0 1 2 1 -0 2 5 3 3 3 -1 -3 2 2 3 2 1 -1 -0 -1 -2 -0 1 0 -1 -1 -1 1 1 -1 -1 2 1 -1 1 2
-2 -2 -3 -3 -2 -1 -1 -3 -4 -3 -0 -2 -4 -4 -5 -5 -3 -1 -1 -3 -2 -0 -2 -3 -2 1 1 1 1 -1 -5 -4 -3 -1 0 -0 -1 -1 -1 -0 -1 0 1 1 1 1 1 1 -1 0 1 -1 1 2
-2 -3 -1 -2 -2 -2 -3 -5 -5 0 -2 -4 -5 -4 -4 -2 -1 1 -0 -3 -5 -2 0 0 1 1 1 0 0 -0 -0 -0 -0 -1 -2 -2 -2 -1 -1 -0 0 1 1 0 -0 -1 -1 0 1 -0 -0 -0 -0 -1
-1 -1 -4 -1 -1 -2 -4 -4 -2 -3 -3 -2 -6 -4 -2 -2 -6 -7 -4 -3 -1 0 2 2 2 2 3 2 0 0 -0 -0 -0 -1 -0 0 0 0 0 0 0 0 0 0 1 0 -1 -1 -0 0 0 0 -0 -1
Height
5721 5713 5705 5696 5688 5677 5667 5657 5648 5639 5629 5618 5607 5595 5583 5571 5560 5549 5534 5521 5509 5499 5487 5477 5466 5460 5453 5448 5443 5438 5437 5432 5426 5421 5416 5411 5409 5406 5403 5401 5400 5401 5400 5399 5399 5399 5402 5403 5402 5404 5406 5406 5406 5410
5715 5708 5699 5690 5681 5671 5660 5650 5641 5632 5623 5613 5602 5591 5579 5567 5556 5544 5534 5521 5508 5496 5487 5478 5466 5458 5452 5447 5442 5437 5432 5427 5422 5419 5415 5412 5408 5405 5403 5400 5398 5398 5397 5397 5399 5398 5398 5400 5401 5402 5403 5404 5405 5408
5708 5700 5692 5683 5674 5664 5653 5643 5633 5624 5615 5606 5596 5585 5574 5563 5551 5539 5528 5517 5506 5494 5484 5476 5466 5457 5450 5444 5439 5434 5430 5426 5422 5418 5414 5411 5407 5404 5400 5398 5397 5395 5394 5394 5396 5395 5395 5397 5399 5400 5401 5403 5404 5404
5701 5692 5685 5677 5667 5658 5647 5636 5626 5618 5608 5598 5587 5578 5567 5556 5546 5534 5523 5512 5501 5489 5480 5474 5465 5455 5448 5441 5434 5430 5426 5421 5417 5414 5410 5406 5404 5402 5398 5395 5392 5392 5391 5390 5390 5390 5391 5391 5394 5396 5398 5399 5400 5400
5693 5684 5677 5668 5660 5651 5640 5629 5620 5611 5601 5591 5581 5570 5559 5549 5539 5529 5517 5507 5496 5487 5477 5468 5461 5453 5444 5438 5431 5424 5419 5415 5413 5409 5405 5402 5399 5397 5394 5392 5389 5386 5386 5386 5385 5382 5382 5384 5387 5391 5392 5394 5395 5396
5685 5676 5668 5660 5651 5641 5631 5623 5613 5603 5593 5584 5573 5563 5552 5542 5532 5523 5513 5501 5490 5482 5473 5465 5457 5448 5440 5433 5427 5421 5415 5410 5406 5403 5399 5396 5393 5391 5388 5386 5384 5382 5381 5379 5379 5377 5375 5374 5377 5380 5384 5386 5389 5391
5677 5669 5660 5650 5641 5632 5623 5614 5605 5596 5586 5575 5565 5555 5546 5535 5525 5515 5506 5496 5486 5477 5468 5460 5453 5445 5437 5430 5424 5418 5412 5407 5401 5396 5392 5388 5386 5384 5381 5379 5377 5374 5371 5368 5369 5368 5367 5368 5367 5368 5372 5376 5379 5382
5667 5659 5650 5640 5631 5623 5614 5605 5596 5587 5576 5566 5555 5545 5536 5527 5516 5506 5496 5486 5477 5470 5461 5454 5448 5442 5433 5427 5420 5412 5406 5400 5395 5389 5384 5381 5378 5375 5374 5372 5370 5368 5366 5364 5362 5361 5360 5358 5357 5356 5358 5361 5366 5370
5658 5649 5640 5631 5621 5613 5605 5596 5587 5577 5568 5557 5545 5536 5528 5519 5510 5500 5488 5479 5470 5464 5454 5447 5441 5435 5427 5420 5412 5405 5399 5393 5388 5383 5377 5374 5370 5367 5365 5363 5362 5361 5360 5357 5356 5353 5351 5349 5347 5345 5345 5347 5352 5357
5649 5639 5630 5620 5610 5602 5593 5585 5578 5568 5557 5547 5537 5526 5518 5511 5500 5492 5479 5472 5463 5456 5446 5440 5433 5426 5420 5412 5404 5396 5388 5382 5377 5375 5368 5365 5362 5359 5356 5354 5352 5351 5351 5351 5349 5348 5346 5344 5341 5338 5335 5334 5334 5340
5638 5628 5620 5610 5600 5592 5583 5574 5564 5556 5545 5536 5527 5518 5506 5498 5489 5479 5470 5462 5452 5446 5439 5432 5424 5417 5410 5403 5395 5388 5378 5372 5367 5365 5359 5356 5354 5352 5350 5347 5346 5345 5344 5344 5344 5342 5341 5339 5336 5332 5329 5327 5327 5327
5627 5618 5609 5600 5590 5581 5571 5561 5552 5543 5532 5523 5515 5506 5497 5487 5477 5468 5458 5449 5441 5435 5429 5421 5415 5408 5401 5392 5385 5377 5370 5361 5357 5353 5350 5347 5345 5345 5343 5341 5340 5339 5339 5338 5336 5335 5333 5331 5329 5327 5324 5320 5318 5318
5617 5608 5599 5589 5579 5570 5561 5551 5540 5531 5522 5513 5504 5496 5486 5476 5465 5454 5448 5441 5433 5426 5420 5412 5404 5397 5389 5382 5374 5365 5357 5351 5346 5343 5340 5339 5337 5336 5335 5334 5333 5332 5331 5331 5330 5329 5328 5326 5324 5321 5319 5317 5313 5310
5605 5595 5587 5577 5569 5559 5549 5539 5529 5519 5509 5500 5491 5483 5474 5463 5454 5446 5438 5431 5425 5417 5409 5401 5393 5386 5377 5368 5361 5352 5345 5339 5335 5333 5331 5330 5329 5328 5327 5326 5325 5324 5323 5323 5322 5322 5321 5320 5318 5316 5315 5312 5310 5308
5593 5584 5575 5566 5558 5547 5537 5528 5520 5510 5500 5490 5478 5469 5460 5452 5444 5436 5428 5420 5414 5406 5398 5389 5381 5374 5364 5356 5348 5340 5333 5328 5325 5324 5322 5319 5319 5318 5316 5316 5315 5315 5314 5314 5314 5314 5313 5313 5313 5312 5310 5309 5307 5305
5581 5574 5565 5555 5546 5537 5528 5519 5510 5499 5489 5481 5471 5461 5452 5444 5434 5425 5417 5410 5402 5393 5384 5374 5366 5357 5350 5342 5336 5329 5324 5319 5316 5313 5310 5308 5306 5306 5305 5305 5305 5304 5304 5304 5304 5304 5304 5305 5305 5305 5305 5304 5303 5302
5568 5562 5552 5544 5536 5527 5517 5506 5496 5489 5477 5468 5460 5452 5442 5432 5423 5414 5406 5397 5388 5380 5370 5359 5349 5342 5333 5327 5321 5317 5312 5307 5303 5300 5298 5296 5295 5294 5293 5293 5293 5293 5293 5293 5294 5294 5294 5294 5295 5296 5296 5297 5297 5297
5558 5550 5541 5533 5524 5515 5507 5497 5485 5477 5469 5460 5451 5440 5431 5421 5412 5403 5394 5384 5375 5365 5355 5345 5336 5329 5320 5313 5308 5304 5299 5295 5292 5289 5286 5284 5282 5282 5281 5280 5280 5281 5281 5281 5282 5282 5282 5283 5283 5284 5285 5287 5288 5290
5547 5540 5531 5520 5511 5502 5493 5488 5478 5468 5459 5448 5438 5429 5419 5410 5400 5390 5380 5370 5359 5349 5339 5330 5321 5314 5307 5301 5295 5291 5288 5284 5280 5277 5275 5274 5272 5270 5269 5268 5268 5267 5268 5268 5269 5269 5270 5270 5270 5272 5273 5275 5277 5279
5537 5528 5519 5510 5501 5492 5483 5475 5465 5456 5446 5438 5428 5418 5409 5398 5387 5376 5365 5354 5344 5334 5324 5316 5308 5300 5294 5288 5283 5279 5276 5273 5270 5266 5263 5262 5260 5259 5258 5257 5256 5255 5255 5255 5255 5256 5256 5257 5258 5259 5261 5263 5265 5267
5524 5517 5508 5500 5491 5482 5471 5462 5454 5446 5437 5428 5417 5407 5397 5385 5374 5362 5350 5338 5328 5318 5309 5302 5294 5287 5281 5275 5271 5268 5265 5262 5259 5257 5255 5251 5249 5247 5245 5244 5244 5244 5243 5243 5243 5243 5244 5245 5246 5247 5249 5251 5254 5256
5514 5506 5498 5488 5480 5473 5466 5456 5446 5437 5428 5417 5407 5396 5384 5371 5358 5347 5333 5323 5313 5304 5295 5287 5280 5274 5269 5265 5261 5257 5253 5250 5247 5244 5242 5240 5238 5236 5234 5233 5232 5230 5231 5231 5231 5232 5233 5233 5235 5236 5238 5240 5242 5244
5506 5496 5488 5480 5472 5465 5457 5447 5439 5429 5417 5406 5395 5383 5370 5357 5344 5330 5320 5308 5298 5290 5282 5275 5269 5263 5258 5254 5249 5245 5241 5237 5234 5231 5229 5226 5223 5222 5221 5219 5218 5218 5217 5217 5219 5219 5220 5222 5223 5225 5226 5228 5230 5232
5494 5486 5479 5471 5464 5456 5448 5440 5430 5419 5408 5396 5383 5369 5356 5343 5330 5318 5307 5295 5286 5278 5271 5264 5257 5252 5247 5241 5237 5233 5229 5224 5219 5215 5214 5212 5210 5207 5206 5205 5204 5204 5204 5204 5205 5206 5208 5210 5212 5214 5215 5217 5219 5221
5486 5479 5472 5465 5457 5449 5441 5431 5421 5409 5397 5385 5372 5358 5345 5331 5318 5305 5294 5284 5274 5266 5259 5252 5245 5239 5234 5229 5223 5217 5213 5210 5206 5202 5198 5197 5195 5192 5190 5190 5190 5190 5190 5191 5192 5193 5195 5198 5200 5202 5204 5206 5209 5210
5478 5472 5466 5458 5451 5443 5434 5423 5412 5401 5389 5376 5363 5349 5334 5320 5307 5293 5281 5272 5263 5255 5248 5241 5235 5229 5221 5215 5210 5205 5200 5196 5192 5188 5186 5184 5181 5179 5178 5176 5174 5175 5177 5177 5178 5180 5182 5185 5187 5190 5193 5196 5199 5201
5474 5467 5461 5454 5446 5438 5428 5417 5406 5394 5382 5368 5353 5338 5323 5309 5295 5284 5273 5264 5254 5246 5238 5231 5223 5216 5211 5205 5199 5193 5189 5185 5182 5179 5176 5173 5170 5169 5167 5166 5164 5164 5164 5164 5166 5168 5170 5173 5176 5179 5182 5186 5189 5192
5469 5463 5457 5450 5442 5433 5423 5412 5401 5388 5374 5360 5346 5332 5317 5303 5292 5279 5268 5258 5248 5238 5229 5222 5215 5207 5200 5195 5191 5185 5180 5175 5172 5169 5166 5165 5164 5161 5159 5157 5156 5156 5156 5156 5156 5158 5159 5161 5164 5169 5172 5175 5179 5182
5466 5460 5454 5446 5438 5429 5419 5408 5396 5383 5371 5357 5343 5328 5314 5300 5287 5275 5264 5254 5244 5235 5226 5216 5208 5200 5193 5186 5182 5180 5175 5171 5167 5162 5159 5156 5154 5155 5154 5152 5151 5150 5149 5149 5149 5149 5150 5151 5154 5158 5160 5164 5169 5173
5463 5457 5450 5442 5434 5425 5415 5405 5394 5382 5369 5356 5343 5329 5314 5299 5285 5272 5262 5252 5242 5232 5223 5215 5208 5200 5193 5186 5178 5171 5168 5165 5162 5159 5156 5153 5151 5150 5148 5148 5147 5145 5144 5142 5142 5142 5143 5143 5145 5148 5151 5154 5158 5163
5460 5454 5447 5440 5432 5423 5414 5404 5393 5382 5370 5357 5344 5330 5314 5300 5286 5273 5262 5251 5241 5232 5222 5213 5204 5198 5191 5184 5177 5171 5165 5161 5157 5155 5153 5151 5149 5148 5146 5145 5143 5141 5139 5138 5137 5136 5136 5137 5138 5139 5142 5145 5149 5152
5457 5452 5445 5438 5431 5423 5414 5404 5394 5384 5372 5360 5347 5334 5320 5306 5293 5279 5266 5254 5243 5233 5225 5216 5208 5201 5193 5185 5179 5174 5169 5164 5160 5156 5153 5151 5150 5148 5145 5143 5141 5138 5136 5134 5133 5132 5131 5131 5132 5132 5134 5137 5140 5143
5456 5450 5444 5439 5432 5424 5415 5407 5397 5387 5376 5364 5351 5340 5327 5313 5297 5283 5271 5259 5250 5240 5231 5223 5215 5207 5200 5193 5187 5181 5175 5169 5165 5161 5158 5154 5151 5148 5145 5141 5138 5136 5133 5131 5130 5129 5128 5127 5127 5127 5128 5130 5133 5136